EW6612 Weather Reports


Display with metric or nautical units.
time (UTC)temp
F
wind
direction
speed
MPH
gust
MPH
rain 1hr
in
rain 24hr
in
rain mn
in
humidity
%
barometer
mb
20171023114926 74 88 3.0 9.0 0.00 0.00 0.00 49 1025.7
20171023113926 73 116 2.0 7.0 0.00 0.00 0.00 48 1025.7
20171023112922 72 355 2.0 5.0 0.00 0.00 0.00 51 1025.8
20171023111925 71 75 1.0 4.0 0.00 0.00 0.00 53 1026.0
20171023110933 70 24 2.0 4.0 0.00 0.00 0.00 58 1026.0
20171023105922 69 17 2.0 3.0 0.00 0.00 0.00 58 1026.0
20171023104932 68 26 2.0 4.0 0.00 0.00 0.00 61 1026.0
20171023103918 67 16 2.0 4.0 0.00 0.00 0.00 64 1026.1
20171023102923 66 13 2.0 4.0 0.00 0.00 0.00 63 1026.1
20171023101928 66 20 1.0 3.0 0.00 0.00 0.00 65 1026.2
20171023100918 64 18 1.0 3.0 0.00 0.00 0.00 72 1026.3
20171023095916 62 18 0.0 2.0 0.00 0.00 0.00 77 1026.4
20171023094917 60 18 0.0 2.0 0.00 0.00 0.00 85 1026.5
20171023093910 59 18 1.0 3.0 0.00 0.00 0.00 88 1026.5
20171023092910 57 319 1.0 3.0 0.00 0.00 0.00 90 1026.5
20171023091908 55 308 1.0 2.0 0.00 0.00 0.00 93 1026.6
20171023090900 54 307 0.0 2.0 0.00 0.00 0.00 94 1026.6
20171023085859 52 307 0.0 0.0 0.00 0.00 0.00 95 1026.7
20171023084850 51 307 0.0 1.0 0.00 0.00 0.00 95 1026.7
20171023083848 51 307 0.0 0.0 0.00 0.00 0.00 96 1026.7
20171023082848 49 302 0.0 0.0 0.00 0.00 0.00 95 1026.7
20171023081838 49 302 0.0 0.0 0.00 0.00 0.00 96 1026.6
20171023080837 48 302 0.0 0.0 0.00 0.00 0.00 96 1026.6
20171023075823 47 301 0.0 0.0 0.00 0.00 0.00 96 1026.6
20171023074829 46 187 0.0 0.0 0.00 0.00 0.00 96 1026.5
20171023073824 45 294 0.0 0.0 0.00 0.00 0.00 96 1026.4
20171023072818 44 306 0.0 0.0 0.00 0.00 0.00 96 1026.3
20171023071816 43 306 0.0 0.0 0.00 0.00 0.00 96 1026.3
20171023070803 42 306 0.0 0.0 0.00 0.00 0.00 95 1026.2
20171023065756 42 306 0.0 0.0 0.00 0.00 0.00 95 1026.1
20171023064751 42 306 0.0 0.0 0.00 0.00 0.00 95 1026.1
20171023063740 42 306 0.0 0.0 0.00 0.00 0.00 95 1026.0
20171023062735 42 306 0.0 0.0 0.00 0.00 0.00 95 1026.0
20171023061724 43 306 0.0 1.0 0.00 0.00 0.00 95 1026.0
20171023060713 43 306 0.0 1.0 0.00 0.00 0.00 95 1026.1
20171023055706 43 306 0.0 0.0 0.00 0.00 0.00 95 1026.1
20171023054658 43 306 0.0 0.0 0.00 0.00 0.00 95 1026.1
20171023053658 43 306 0.0 0.0 0.00 0.00 0.00 95 1026.0
20171023052655 43 306 0.0 0.0 0.00 0.00 0.00 95 1025.9
20171023051651 43 306 0.0 0.0 0.00 0.00 0.00 95 1025.9
20171023050650 43 306 0.0 0.0 0.00 0.00 0.00 95 1025.8
20171023045642 43 306 0.0 0.0 0.00 0.00 0.00 95 1025.7
20171023044630 43 306 0.0 0.0 0.00 0.00 0.00 95 1025.6
20171023043622 44 306 0.0 0.0 0.00 0.00 0.00 95 1025.6
20171023042614 44 306 0.0 0.0 0.00 0.00 0.00 95 1025.5
20171023041601 44 306 0.0 0.0 0.00 0.00 0.00 95 1025.6
20171023040557 44 306 0.0 0.0 0.00 0.00 0.00 95 1025.7
20171023035550 44 306 0.0 0.0 0.00 0.00 0.00 95 1025.7
20171023034541 44 306 0.0 0.0 0.00 0.00 0.00 95 1025.6
20171023033533 44 306 0.0 0.0 0.00 0.00 0.00 95 1025.6
20171023032534 44 306 0.0 0.0 0.00 0.00 0.00 95 1025.7
20171023031519 44 306 0.0 0.0 0.00 0.00 0.00 95 1025.8
20171023030512 44 306 0.0 0.0 0.00 0.00 0.00 95 1025.8
20171023025455 44 306 0.0 0.0 0.00 0.00 0.00 95 1025.9
20171023024449 45 306 0.0 0.0 0.00 0.00 0.00 95 1026.0
20171023023444 45 306 0.0 0.0 0.00 0.00 0.00 95 1026.1
20171023022436 45 306 0.0 0.0 0.00 0.00 0.00 95 1026.2
20171023021428 45 306 0.0 0.0 0.00 0.00 0.00 95 1026.3
20171023020424 45 306 0.0 0.0 0.00 0.00 0.00 95 1026.3
20171023015414 45 306 0.0 0.0 0.00 0.00 0.00 95 1026.4
20171023014407 45 306 0.0 0.0 0.00 0.00 0.00 94 1026.5
20171023013401 45 306 0.0 0.0 0.00 0.00 0.00 94 1026.5
20171023012348 46 306 0.0 0.0 0.00 0.00 0.00 94 1026.6
20171023011344 46 306 0.0 0.0 0.00 0.00 0.00 94 1026.6
20171023010333 46 306 0.0 0.0 0.00 0.00 0.00 94 1026.7
20171023005329 46 306 0.0 0.0 0.00 0.00 0.00 94 1026.7
20171023004315 46 306 0.0 0.0 0.00 0.00 0.00 94 1026.8
20171023003308 46 306 0.0 1.0 0.00 0.00 0.00 94 1026.8
20171023002257 46 306 0.0 0.0 0.00 0.00 0.00 94 1026.9
20171023001253 46 306 0.0 0.0 0.00 0.00 0.00 94 1027.0
20171023000245 47 306 0.0 0.0 0.00 0.00 0.00 94 1027.0
20171022235229 47 306 0.0 0.0 0.00 0.00 0.00 94 1027.0
20171022234228 47 306 0.0 0.0 0.00 0.00 0.00 94 1027.0
20171022233222 47 306 0.0 0.0 0.00 0.00 0.00 94 1027.1
20171022232215 47 306 0.0 2.0 0.00 0.00 0.00 94 1027.1
20171022231153 47 306 0.0 0.0 0.00 0.00 0.00 93 1027.0
20171022230152 48 306 0.0 0.0 0.00 0.00 0.00 93 1027.1
20171022225145 48 306 0.0 0.0 0.00 0.00 0.01 93 1027.3
20171022224136 48 306 0.0 0.0 0.00 0.00 0.01 93 1027.5
20171022223129 48 306 0.0 0.0 0.00 0.00 0.01 93 1027.5
20171022222121 49 306 0.0 0.0 0.00 0.00 0.01 93 1027.5
20171022221112 49 306 0.0 0.0 0.00 0.00 0.01 93 1027.6
20171022220121 49 306 0.0 0.0 0.00 0.00 0.01 93 1027.5
20171022215057 49 306 0.0 0.0 0.00 0.00 0.01 92 1027.6
20171022214048 50 306 0.0 0.0 0.00 0.00 0.01 92 1027.6
20171022213043 50 306 0.0 0.0 0.00 0.00 0.01 92 1027.6
20171022212032 50 306 0.0 0.0 0.00 0.00 0.01 92 1027.5
20171022211024 51 306 0.0 0.0 0.00 0.00 0.01 92 1027.5
20171022210023 51 306 0.0 0.0 0.00 0.00 0.01 92 1027.6
20171022205349 51 306 0.0 0.0 0.00 0.00 0.01 91 1027.6
20171022204345 51 306 0.0 0.0 0.00 0.00 0.01 91 1027.7
20171022203333 51 306 0.0 0.0 0.00 0.00 0.01 91 1027.7
20171022202300 52 306 0.0 0.0 0.00 0.00 0.01 90 1027.8
20171022201255 52 306 0.0 0.0 0.00 0.00 0.01 90 1027.7
20171022200250 52 306 0.0 0.0 0.00 0.00 0.01 89 1027.6
20171022195243 53 306 1.0 2.0 0.00 0.00 0.01 88 1027.6
20171022194252 53 306 0.0 2.0 0.00 0.00 0.01 87 1027.5
20171022193252 54 306 0.0 0.0 0.00 0.00 0.01 87 1027.6
20171022192236 55 306 1.0 2.0 0.00 0.00 0.01 86 1027.6
20171022191233 55 306 1.0 3.0 0.00 0.00 0.01 84 1027.5
20171022190234 56 319 0.0 3.0 0.00 0.00 0.01 82 1027.4
20171022185231 57 319 1.0 3.0 0.00 0.00 0.01 81 1027.3
20171022184221 57 320 1.0 3.0 0.00 0.00 0.01 79 1027.3
20171022183223 58 320 2.0 7.0 0.00 0.00 0.01 78 1027.2
20171022182218 58 325 2.0 7.0 0.00 0.00 0.01 76 1027.1
20171022181217 59 340 2.0 7.0 0.00 0.00 0.01 74 1027.0
20171022180214 59 350 4.0 8.0 0.00 0.00 0.01 73 1026.8
20171022175211 60 310 2.0 5.0 0.00 0.00 0.01 71 1026.8
20171022174215 61 355 2.0 4.0 0.00 0.00 0.01 68 1026.6
20171022173200 62 355 2.0 6.0 0.00 0.00 0.01 65 1026.4
20171022172159 63 350 5.0 10.0 0.00 0.00 0.01 62 1026.3
20171022171157 64 331 3.0 6.0 0.00 0.00 0.01 61 1026.2
20171022170202 64 306 4.0 10.0 0.00 0.00 0.01 58 1026.1
20171022165159 66 355 4.0 11.0 0.00 0.00 0.01 55 1026.1
20171022164153 66 17 5.0 11.0 0.00 0.00 0.01 55 1026.0
20171022163150 67 23 6.0 10.0 0.00 0.00 0.01 54 1026.1
20171022162151 67 11 6.0 10.0 0.00 0.00 0.01 55 1026.1
20171022161151 68 11 5.0 9.0 0.00 0.00 0.01 54 1026.1
20171022160200 68 19 5.0 11.0 0.00 0.00 0.01 54 1026.1
20171022155148 68 355 6.0 6.0 0.00 0.00 0.01 53 1026.2
20171022154233 68 329 6.0 12.0 0.00 0.01 0.01 54 1026.3
20171022153233 67 349 7.0 12.0 0.00 0.01 0.01 57 1026.2
20171022152233 68 348 7.0 12.0 0.00 0.01 0.01 55 1026.2
20171022151231 68 313 8.0 14.0 0.00 0.01 0.01 55 1026.2
20171022150227 68 296 7.0 15.0 0.00 0.01 0.01 56 1026.4
20171022145228 68 342 8.0 13.0 0.00 0.01 0.01 54 1026.4
20171022144231 68 338 9.0 13.0 0.00 0.01 0.01 55 1026.5
20171022143227 68 322 10.0 15.0 0.00 0.01 0.01 55 1026.6
20171022142223 68 339 10.0 15.0 0.00 0.01 0.01 56 1026.7
20171022141224 69 350 9.0 15.0 0.00 0.01 0.01 55 1026.8
20171022140224 69 347 8.0 14.0 0.00 0.01 0.01 56 1026.9
20171022135225 69 355 8.0 13.0 0.00 0.01 0.01 54 1026.9
20171022134221 69 311 8.0 12.0 0.00 0.01 0.01 53 1027.0
20171022133225 69 308 8.0 14.0 0.00 0.01 0.01 53 1027.2
20171022132215 69 342 7.0 13.0 0.00 0.01 0.01 52 1027.3
20171022131215 69 355 7.0 13.0 0.00 0.01 0.01 49 1027.3
20171022130216 68 333 7.0 13.0 0.00 0.01 0.01 48 1027.5
20171022125215 68 344 7.0 16.0 0.00 0.01 0.01 49 1027.6
20171022124218 68 30 7.0 15.0 0.00 0.01 0.01 50 1027.7
20171022123212 67 342 7.0 14.0 0.00 0.01 0.01 50 1028.0
20171022122217 67 5 6.0 13.0 0.00 0.01 0.01 52 1028.0
20171022121211 66 315 6.0 11.0 0.00 0.01 0.01 55 1028.2
20171022120212 66 355 6.0 13.0 0.00 0.01 0.01 53 1028.3
20171022115211 65 355 6.0 12.0 0.00 0.01 0.01 53 1028.3